Regional Weather Roundup
Issued by NWS

Home | Current Version | Previous Version | Graphics & Text | Print | Product List | Glossary On
Versions: 1 2 3 4 5 6 7 8 9 10 11 12 13 14 15 16 17 18 19 20 21 22 23 24 25 26 27 28 29 30 31 32 33 34 35 36 37 38 39 40 41 42 43 44 45 46 47 48 49 50
000
ASUS43 KMKX 031911
RWRWI

WISCONSIN REGIONAL WEATHER ROUNDUP
NATIONAL WEATHER SERVICE MILWAUKEE/SULLIVAN WI
200 PM CDT THU SEP 03 2015

NOTE: "FAIR" INDICATES FEW OR NO CLOUDS BELOW 12,000 FEET WITH NO
SIGNIFICANT WEATHER AND/OR OBSTRUCTIONS TO VISIBILITY.

WIZ001-002-006>008-014>016-023>028-032000-
NORTHWEST WISCONSIN

CITY           SKY/WX    TMP DP  RH WIND       PRES   REMARKS
SUPERIOR ARPT  CLOUDY    62  61  96 E8        29.98F
ASHLAND        PTSUNNY   71  67  87 N8        29.98F
HAYWARD        SUNNY     77  66  68 SE7       29.97F
SIREN          SUNNY     80  65  60 SE6       29.94F HX  81
CUMBERLAND     SUNNY     77  64  65 E6        29.96S
RICE LAKE      MOSUNNY   80  66  63 SE5       29.97S HX  82
CHETEK         MOSUNNY   79  69  70 E3        29.95S HX  81
LADYSMITH      MOSUNNY   80  66  61 SE5       29.98F HX  82
EAU CLAIRE     SUNNY     79  68  69 E7        29.94S HX  81
MENOMONIE      SUNNY     80  68  67 E7        29.94F HX  82
NEW RICHMOND   SUNNY     79  69  71 E10       29.94S HX  81
OSCEOLA        SUNNY     81  72  75 SE10      29.96S HX  85
$$

WIZ003>005-009-010-017-018-032000-
NORTH CENTRAL WISCONSIN

CITY           SKY/WX    TMP DP  RH WIND       PRES   REMARKS
MANITOWISH WTR MOSUNNY   76  64  64 E7        29.99F
ARBOR VITAE    MOSUNNY   79  65  62 SE7       29.99F HX  81
WOODRUFF       MOSUNNY   79  65  62 SE7       29.99F HX  81
RHINELANDER    PTSUNNY   76  64  66 VRB5      30.00F
EAGLE RIVER    PTSUNNY   78  61  55 NE7       30.00S
LAND O LAKES   PTSUNNY   78  62  57 SE6       30.01S HX  80
PHILLIPS       SUNNY     78  63  60 CALM      29.97F HX  80
TOMAHAWK       MOSUNNY   75  64  67 NE5       29.99F
MEDFORD        CLOUDY    75  67  74 E7        29.99S
MERRILL        MOSUNNY   75  66  74 CALM      29.99S
$$

WIZ029-030-035-036-043>047-032000-
CENTRAL WISCONSIN

CITY           SKY/WX    TMP DP  RH WIND       PRES   REMARKS
WAUSAU         CLOUDY    74  65  73 NE6       29.97S
MOSINEE        CLOUDY    73  66  78 VRB5      29.99S
MARSHFIELD     CLOUDY    73  63  70 E5        29.98S HAZE
STEVENS POINT  CLOUDY    74  65  75 NE5       29.97F
WAUPACA        CLOUDY    76  68  75 N5        29.96F
WAUTOMA        MOSUNNY   79  67  66 VRB5      29.96F HX  81
WISC RAPIDS    PTSUNNY   79  65  62 VRB6      29.97F HX  81
CAMP DOUGLAS   MOSUNNY   82  75  78 NE5       29.94F HX  89
$$

WIZ011>013-019>022-031-037>040-048>050-032000-
NORTHEAST WISCONSIN

CITY           SKY/WX    TMP DP  RH WIND       PRES   REMARKS
ANTIGO         CLOUDY    74  66  75 E6        29.99S
SHAWANO        NOT AVBL
OCONTO         CLOUDY    73  70  91 N7        29.94S
STURGEON BAY   PTSUNNY   70  64  83 N10       29.96F
GREEN BAY      CLOUDY    74  68  81 N8        29.95F
MANITOWOC      CLOUDY    74  68  81 MISG      29.93F
APPLETON       CLOUDY   N/A N/A N/A N9          N/A
CLINTONVILLE   CLOUDY    72  64  78 NE7       29.96S
OSHKOSH        CLOUDY    75  66  73 CALM      29.95F
$$

WIZ032>034-041-042-053>061-032000-
SOUTHWEST WISCONSIN

CITY           SKY/WX    TMP DP  RH WIND       PRES   REMARKS
LA CROSSE      MOSUNNY   87  72  60 VRB3      29.90F HX  93
SPARTA         SUNNY     83  67  58 E8        29.94S HX  86
VIROQUA          N/A     84  72  68 CALM      29.94S HX  89
BOSCOBEL       MOSUNNY   89  72  56 VRB3      29.90F HX  96
PRAIRIE DU CHI SUNNY     87  69  55 CALM      29.89F HX  91
PLATTEVILLE    SUNNY     86  74  66 SW6       29.93F HX  94
$$

WIZ056-057-062-063-064-067-068-032000-
SOUTH CENTRAL WISCONSIN

CITY           SKY/WX    TMP DP  RH WIND       PRES   REMARKS
REEDSBURG      PTSUNNY   83  72  69 NE3       29.92F HX  88
BARABOO/DELLS  MOSUNNY   83  69  63 NE7       29.93F HX  86
LONE ROCK      MOSUNNY   87  71  58 CALM      29.91F HX  93
MINERAL POINT  MOSUNNY   88  72  58 S3        29.93F HX  94
MADISON        PTSUNNY   86  72  62 VRB7      29.92F HX  92
MIDDLETON      CLOUDY   N/A N/A N/A CALM      29.93S
WATERTOWN      CLOUDY    84  76  77 NW6       29.92S HX  93
MONROE         PTSUNNY   86  72  62 CALM      29.93F HX  92
JANESVILLE     PTSUNNY   88  72  58 CALM      29.91F HX  94
$$

WIZ051-052-058>065-066-070>072-032000-
SOUTHEAST WISCONSIN

CITY           SKY/WX    TMP DP  RH WIND       PRES   REMARKS
MILWAUKEE      PTSUNNY   80  70  71 E7        29.91F HX  83
WAUKESHA       PTSUNNY   82  70  65 W9        29.94F HX  86
MILWAUKEE/TIMM PTSUNNY   84  70  61 MISG      29.92F HX  88
RACINE         SUNNY     88  71  57 W10       29.92F HX  94
BURLINGTON     MOSUNNY   84  70  62 SW6       29.92F HX  88
KENOSHA        PTSUNNY   87  72  60 W6        29.92F HX  93
FOND DU LAC    CLOUDY    74  67  78 NE8       29.95F
SHEBOYGAN      CLOUDY    76  67  73 NW10      29.93F
WEST BEND      CLOUDY    77  68  73 NW9       29.93F
JUNEAU         CLOUDY    77  70  78 N6        29.95F
$$

LSZ147-162-032000-
LAKE SUPERIOR

STATION/POSITION TIME  TEMP    WIND        PRES    WAVE
                       AIR SEA DIR/SP/G            HT/PER
                 (UTC) (F)     (DEG/KT/KT) (MB)    (FT/S)
W MID LAKE BUOY  1850   58 58   10/  8/  8 1016.0S   0
DEVILS ISLAND    1900   58      30/  9/ 11 1016.1S
PORT WING        1800   59      40/ 11/ 12 1015.9S
SAXON HARBOR     1800   63      CALM  /  4 1015.2
$$

LMZ867-665-643>646-032000-
LAKE MICHIGAN

STATION/POSITION TIME  TEMP    WIND        PRES    WAVE
                       AIR SEA DIR/SP/G            HT/PER
                 (UTC) (F)     (DEG/KT/KT) (MB)    (FT/S)
CHAMBERS ISLAND  1800   69     350/  5/  7 1014.2S
S GREEN BAY BUOY 1900   67 67   40/ 10/ 14 1015.5F
N MID LAKE BUOY  1850   68 66   60/ 12/ 14 1013.1F   1/ 4
NORTHPORT PIER   1800   68     350/  7/  9 1013.9S
SISTER BAY       1811   73     340/ 14/ 16   N/A
ALGOMA LAKESHORE 1814          340/  8/ 11   N/A
KEWAUNEE LAKESHO 1800   71     340/ 10/ 13 1012.8R
SHEBOYGAN LAKESH 1900   74     310/  6/  9 1013.4F
PORT WASHINGTON  1840   66      40/  7/  8 1013.9F
ATWATER BUOY     1900   59     350/  2/  4 1014.7F
MILWAUKEE LAKESH 1810   69      60/  7/  8   N/A
S MID LAKE BUOY  1850   74 72  220/  4/  6 1012.5F   1
KENOSHA   LAKESH 1900   80     230/  6/ 10 1012.2F
$$

TC  - TEMPERATURE IN CELSIUS
VSB - VISIBILITY IN STATUTE MILES
WCI - WIND CHILL INDEX
HX  - HEAT INDEX



USA.gov is the U.S. government's official web portal to all federal, state and local government web resources and services.